• In Hungary
  • List of Countries
  • For 7 days
  • Water Temperature
  • Satellite Maps
  • Weather Map
  • News
  • Weather Widgets
  • user-avatar
    Login

    Hourly Weather Komarkov

    Today, 15 August, Wednesday

    Time Temperature Precipitation Wind Pressure Humidity
    00:00 +27°C° 0 mm 2 mps 754 mmHg 37%
    01:00 +26°C° 0 mm 3 mps 754 mmHg 39%
    02:00 +25°C° 0 mm 3 mps 754 mmHg 40%
    03:00 +25°C° 0 mm 2 mps 754 mmHg 42%
    04:00 +24°C° 0 mm 3 mps 755 mmHg 43%
    05:00 +24°C° 0 mm 3 mps 755 mmHg 44%
    06:00 +24°C° 0 mm 3 mps 755 mmHg 44%
    07:00 +27°C° 0 mm 3 mps 755 mmHg 40%
    08:00 +29°C° 0 mm 4 mps 755 mmHg 35%
    09:00 +32°C° 0 mm 5 mps 755 mmHg 30%
    10:00 +34°C° 0 mm 5 mps 755 mmHg 27%
    11:00 +35°C° 0 mm 5 mps 755 mmHg 24%
    12:00 +36°C° 0 mm 4 mps 755 mmHg 21%
    13:00 +36°C° 0 mm 4 mps 755 mmHg 20%
    14:00 +37°C° 0 mm 4 mps 755 mmHg 19%
    15:00 +37°C° 0 mm 5 mps 754 mmHg 19%
    16:00 +36°C° 0 mm 4 mps 754 mmHg 19%
    17:00 +36°C° 0 mm 4 mps 754 mmHg 20%
    18:00 +35°C° 0 mm 4 mps 754 mmHg 21%
    19:00 +33°C° 0 mm 4 mps 754 mmHg 23%
    20:00 +30°C° 0 mm 4 mps 755 mmHg 26%
    21:00 +28°C° 0 mm 4 mps 755 mmHg 28%
    22:00 +28°C° 0 mm 4 mps 755 mmHg 29%
    23:00 +27°C° 0 mm 4 mps 755 mmHg 30%

    Tomorrow, 16 August, Thursday

    Time Temperature Precipitation Wind Pressure Humidity
    00:00 +27°C° 0 mm 4 mps 755 mmHg 31%
    01:00 +26°C° 0 mm 4 mps 755 mmHg 33%
    02:00 +26°C° 0 mm 4 mps 755 mmHg 35%
    03:00 +25°C° 0 mm 3 mps 755 mmHg 38%
    04:00 +25°C° 0 mm 3 mps 755 mmHg 39%
    05:00 +25°C° 0 mm 3 mps 755 mmHg 41%
    06:00 +24°C° 0 mm 3 mps 755 mmHg 42%
    07:00 +27°C° 0 mm 3 mps 755 mmHg 38%
    08:00 +29°C° 0 mm 3 mps 755 mmHg 34%
    09:00 +33°C° 0 mm 3 mps 755 mmHg 29%
    10:00 +34°C° 0 mm 4 mps 755 mmHg 27%
    11:00 +35°C° 0 mm 4 mps 755 mmHg 25%
    12:00 +36°C° 0 mm 5 mps 754 mmHg 23%
    13:00 +37°C° 0 mm 5 mps 754 mmHg 22%
    14:00 +37°C° 0 mm 5 mps 754 mmHg 22%
    15:00 +37°C° 0 mm 5 mps 753 mmHg 21%
    16:00 +37°C° 0 mm 5 mps 753 mmHg 22%
    17:00 +36°C° 0 mm 5 mps 753 mmHg 23%
    18:00 +36°C° 0 mm 5 mps 753 mmHg 24%
    19:00 +34°C° 0 mm 4 mps 753 mmHg 26%
    20:00 +32°C° 0 mm 4 mps 753 mmHg 28%
    21:00 +29°C° 0 mm 3 mps 753 mmHg 30%
    22:00 +29°C° 0 mm 3 mps 753 mmHg 31%
    23:00 +28°C° 0 mm 3 mps 753 mmHg 32%

    Day after tomorrow, 17 August, Friday

    Time Temperature Precipitation Wind Pressure Humidity
    00:00 +27°C° 0 mm 2 mps 753 mmHg 32%
    01:00 +26°C° 0 mm 3 mps 753 mmHg 33%
    02:00 +26°C° 0 mm 3 mps 753 mmHg 34%
    03:00 +25°C° 0 mm 3 mps 753 mmHg 35%
    04:00 +25°C° 0 mm 3 mps 753 mmHg 36%
    05:00 +25°C° 0 mm 2 mps 753 mmHg 37%
    06:00 +24°C° 0 mm 2 mps 753 mmHg 38%
    07:00 +27°C° 0 mm 3 mps 754 mmHg 32%
    08:00 +29°C° 0 mm 4 mps 754 mmHg 27%
    09:00 +33°C° 0 mm 4 mps 754 mmHg 22%
    10:00 +34°C° 0 mm 5 mps 754 mmHg 20%
    11:00 +35°C° 0 mm 6 mps 753 mmHg 19%
    12:00 +36°C° 0 mm 6 mps 753 mmHg 18%
    13:00 +38°C° 0 mm 6 mps 753 mmHg 17%
    14:00 +38°C° 0 mm 6 mps 752 mmHg 17%
    15:00 +38°C° 0 mm 6 mps 752 mmHg 16%
    16:00 +38°C° 0 mm 6 mps 752 mmHg 17%
    17:00 +36°C° 0 mm 5 mps 752 mmHg 18%
    18:00 +36°C° 0 mm 5 mps 752 mmHg 18%
    19:00 +34°C° 0 mm 4 mps 752 mmHg 21%
    20:00 +32°C° 0 mm 4 mps 752 mmHg 23%
    21:00 +29°C° 0 mm 4 mps 752 mmHg 25%
    22:00 +28°C° 0 mm 4 mps 752 mmHg 26%
    23:00 +28°C° 0 mm 4 mps 752 mmHg 27%

    18 August, Saturday

    Time Temperature Precipitation Wind Pressure Humidity
    00:00 +27°C° 0 mm 4 mps 752 mmHg 28%
    01:00 +27°C° 0 mm 4 mps 752 mmHg 27%
    02:00 +26°C° 0 mm 4 mps 752 mmHg 26%
    03:00 +26°C° 0 mm 4 mps 752 mmHg 25%
    04:00 +26°C° 0 mm 4 mps 752 mmHg 26%
    05:00 +25°C° 0 mm 4 mps 752 mmHg 27%
    06:00 +25°C° 0 mm 3 mps 752 mmHg 27%
    07:00 +28°C° 0 mm 4 mps 753 mmHg 25%
    08:00 +30°C° 0 mm 5 mps 753 mmHg 23%
    09:00 +34°C° 0 mm 5 mps 753 mmHg 21%
    10:00 +35°C° 0 mm 5 mps 753 mmHg 20%
    11:00 +36°C° 0 mm 5 mps 753 mmHg 20%
    12:00 +37°C° 0 mm 5 mps 753 mmHg 19%
    13:00 +38°C° 0 mm 6 mps 753 mmHg 20%
    14:00 +38°C° 0 mm 6 mps 752 mmHg 20%
    15:00 +38°C° 0 mm 6 mps 752 mmHg 20%
    16:00 +36°C° 0 mm 6 mps 752 mmHg 23%
    17:00 +35°C° 0 mm 6 mps 752 mmHg 25%
    18:00 +34°C° 0 mm 6 mps 753 mmHg 27%
    19:00 +33°C° 0 mm 6 mps 753 mmHg 31%
    20:00 +30°C° 0 mm 6 mps 753 mmHg 35%
    21:00 +29°C° 0 mm 6 mps 754 mmHg 39%
    22:00 +28°C° 0 mm 6 mps 754 mmHg 39%
    23:00 +27°C° 0 mm 6 mps 754 mmHg 40%

    19 August, Sunday

    Time Temperature Precipitation Wind Pressure Humidity
    00:00 +27°C° 0 mm 6 mps 754 mmHg 40%
    01:00 +26°C° 0 mm 5 mps 755 mmHg 40%
    02:00 +25°C° 0 mm 5 mps 755 mmHg 40%
    03:00 +23°C° 0 mm 5 mps 755 mmHg 40%
    04:00 +23°C° 0 mm 5 mps 755 mmHg 41%
    05:00 +22°C° 0 mm 5 mps 755 mmHg 42%
    06:00 +22°C° 0 mm 5 mps 755 mmHg 43%
    07:00 +23°C° 0 mm 5 mps 756 mmHg 40%
    08:00 +26°C° 0 mm 6 mps 756 mmHg 37%
    09:00 +27°C° 0 mm 6 mps 756 mmHg 34%
    10:00 +29°C° 0 mm 6 mps 756 mmHg 31%
    11:00 +30°C° 0 mm 6 mps 756 mmHg 29%
    12:00 +32°C° 0 mm 6 mps 755 mmHg 26%
    13:00 +32°C° 0 mm 6 mps 755 mmHg 25%
    14:00 +32°C° 0 mm 6 mps 755 mmHg 23%
    15:00 +33°C° 0 mm 6 mps 755 mmHg 21%
    16:00 +32°C° 0 mm 6 mps 755 mmHg 22%
    17:00 +30°C° 0 mm 6 mps 755 mmHg 22%
    18:00 +30°C° 0 mm 6 mps 755 mmHg 22%
    19:00 +28°C° 0 mm 5 mps 755 mmHg 25%
    20:00 +26°C° 0 mm 5 mps 755 mmHg 27%
    21:00 +23°C° 0 mm 5 mps 756 mmHg 30%
    22:00 +23°C° 0 mm 5 mps 756 mmHg 30%
    23:00 +22°C° 0 mm 5 mps 756 mmHg 30%

    20 August, Monday

    Time Temperature Precipitation Wind Pressure Humidity
    00:00 +22°C° 0 mm 5 mps 756 mmHg 29%
    01:00 +21°C° 0 mm 5 mps 756 mmHg 31%
    02:00 +20°C° 0 mm 5 mps 756 mmHg 33%
    03:00 +20°C° 0 mm 4 mps 756 mmHg 35%
    04:00 +19°C° 0 mm 4 mps 756 mmHg 37%
    05:00 +19°C° 0 mm 4 mps 756 mmHg 39%
    06:00 +18°C° 0 mm 4 mps 756 mmHg 41%
    07:00 +20°C° 0 mm 4 mps 756 mmHg 36%
    08:00 +22°C° 0 mm 4 mps 757 mmHg 32%
    09:00 +25°C° 0 mm 5 mps 757 mmHg 28%
    10:00 +27°C° 0 mm 5 mps 757 mmHg 25%
    11:00 +28°C° 0 mm 5 mps 756 mmHg 22%
    12:00 +29°C° 0 mm 4 mps 756 mmHg 19%
    13:00 +30°C° 0 mm 5 mps 756 mmHg 18%
    14:00 +30°C° 0 mm 5 mps 756 mmHg 17%
    15:00 +32°C° 0 mm 5 mps 755 mmHg 16%
    16:00 +30°C° 0 mm 4 mps 755 mmHg 17%
    17:00 +30°C° 0 mm 4 mps 755 mmHg 18%
    18:00 +29°C° 0 mm 4 mps 755 mmHg 19%
    19:00 +27°C° 0 mm 3 mps 755 mmHg 22%
    20:00 +26°C° 0 mm 3 mps 756 mmHg 24%
    21:00 +24°C° 0 mm 3 mps 756 mmHg 27%
    22:00 +22°C° 0 mm 3 mps 756 mmHg 28%
    23:00 +21°C° 0 mm 3 mps 756 mmHg 30%
    Show more